Weather History for North Wilkesboro, NC

Change the Weather History Date:

Thursday, April 11, 2013

  Actual Average Record
Temperature  
Mean Temperature 66 °F -  
Max Temperature 78 °F 67 °F 85 °F (1992)
Min Temperature 55 °F 37 °F 21 °F (1960)
Cooling Degree Days 2    
Growing Degree Days 16 (Base 50)    
Moisture  
Dew Point 56 °F    
Average Humidity 69    
Maximum Humidity 100    
Minimum Humidity 44    
Precipitation  
Precipitation 0.25 in - - ()
Sea Level Pressure  
Sea Level Pressure 29.93 in    
Wind  
Wind Speed 4 mph (South)    
Max Wind Speed 18 mph    
Max Gust Speed 33 mph    
Visibility 10 miles    
Events Rain , Thunderstorm    
Averages and records for this station are not official NWS values.
T = Trace of Precipitation, MM = Missing Value Source: NWS Daily Summary

Daily Weather History Graph

Daily Weather History Graph

Search for Another Location

Airport:

Trip Planner

Search our weather history database for the weather conditions in past years. The results will help you decide how hot, cold, wet, or windy it might be!

Date:

Astronomy

Apr. 11, 2013 Rise Set
Actual Time 6:56 AM EDT 7:55 PM EDT
Civil Twilight 6:29 AM EDT 8:21 PM EDT
Nautical Twilight 5:58 AM EDT 8:52 PM EDT
Astronomical Twilight 5:26 AM EDT 9:25 PM EDT
Moon 7:29 AM EDT (4/11) 9:24 PM EDT (4/11)
Length of Visible Light 13h 51m
Length of Day
12h 58m
New Moon, 2% of the Moon is Illuminated
Apr 11
New Moon
Apr 18
First Quarter
Apr 25
Full
May 2
Last Quarter
May 9
New

Hourly Weather History & Observations

Time (EDT) Temp. Dew Point Humidity Pressure Visibility Wind Dir Wind Speed Gust Speed Precip Events Conditions
12:15 AM 68.0 °F 53.6 °F 60% 30.01 in 10.0 mi SW 3.5 mph - N/A   Clear
12:35 AM 68.0 °F 53.6 °F 60% 30.02 in 10.0 mi Calm Calm - N/A   Clear
12:55 AM 66.2 °F 53.6 °F 64% 30.02 in 10.0 mi Calm Calm - N/A   Clear
1:15 AM 64.4 °F 53.6 °F 68% 30.02 in 10.0 mi Calm Calm - N/A   Clear
1:35 AM 64.4 °F 53.6 °F 68% 30.01 in 10.0 mi Calm Calm - N/A   Clear
1:55 AM 60.8 °F 53.6 °F 77% 30.01 in 10.0 mi SW 3.5 mph - N/A   Clear
2:15 AM 60.8 °F 53.6 °F 77% 30.00 in 10.0 mi Calm Calm - N/A   Clear
2:35 AM 60.8 °F 53.6 °F 77% 30.00 in 10.0 mi Calm Calm - N/A   Clear
2:55 AM 60.8 °F 53.6 °F 77% 30.00 in 10.0 mi Calm Calm - N/A   Clear
3:15 AM 59.0 °F 51.8 °F 77% 29.99 in 10.0 mi Calm Calm - N/A   Clear
3:35 AM 59.0 °F 51.8 °F 77% 29.99 in 10.0 mi Calm Calm - N/A   Clear
3:55 AM 59.0 °F 51.8 °F 77% 29.99 in 10.0 mi Calm Calm - N/A   Clear
4:15 AM 59.0 °F 53.6 °F 82% 29.99 in 10.0 mi Calm Calm - N/A   Clear
4:35 AM 59.0 °F 53.6 °F 82% 29.98 in 10.0 mi Calm Calm - N/A   Clear
4:55 AM 60.8 °F 53.6 °F 77% 29.99 in 10.0 mi Calm Calm - N/A   Clear
5:15 AM 59.0 °F 53.6 °F 82% 29.99 in 10.0 mi Calm Calm - N/A   Clear
5:35 AM 59.0 °F 51.8 °F 77% 29.99 in 10.0 mi NNW 3.5 mph - N/A   Clear
5:55 AM 59.0 °F 53.6 °F 82% 29.99 in 10.0 mi Calm Calm - N/A   Clear
6:15 AM 59.0 °F 53.6 °F 82% 29.99 in 10.0 mi Calm Calm - N/A   Clear
6:35 AM 57.2 °F 51.8 °F 82% 30.00 in 10.0 mi Calm Calm - N/A   Clear
6:55 AM 57.2 °F 53.6 °F 88% 30.01 in 10.0 mi Calm Calm - N/A   Clear
7:15 AM 55.4 °F 53.6 °F 94% 30.02 in 10.0 mi Calm Calm - N/A   Clear
7:35 AM 55.4 °F 51.8 °F 88% 30.02 in 10.0 mi Calm Calm - N/A   Clear
7:55 AM 57.2 °F 53.6 °F 88% 30.02 in 10.0 mi Calm Calm - N/A   Clear
8:15 AM 59.0 °F 53.6 °F 82% 30.03 in 10.0 mi Calm Calm - N/A   Clear
8:35 AM 60.8 °F 55.4 °F 82% 30.03 in 10.0 mi Calm Calm - N/A   Clear
8:55 AM 60.8 °F 55.4 °F 82% 30.03 in 10.0 mi Calm Calm - N/A   Clear
9:15 AM 62.6 °F 55.4 °F 77% 30.03 in 10.0 mi Calm Calm - N/A   Clear
9:35 AM 64.4 °F 55.4 °F 73% 30.02 in 10.0 mi SW 3.5 mph - N/A   Clear
9:55 AM 66.2 °F 55.4 °F 68% 30.02 in 10.0 mi SSW 6.9 mph - N/A   Clear
10:15 AM 68.0 °F 55.4 °F 64% 30.01 in 10.0 mi South 5.8 mph - N/A   Clear
10:35 AM 69.8 °F 57.2 °F 64% 30.01 in 10.0 mi SSW 4.6 mph - N/A   Clear
10:55 AM 69.8 °F 57.2 °F 64% 30.01 in 10.0 mi South 9.2 mph - N/A   Clear
11:15 AM 71.6 °F 57.2 °F 60% 30.00 in 10.0 mi South 8.1 mph - N/A   Clear
11:35 AM 71.6 °F 55.4 °F 57% 30.00 in 10.0 mi South 9.2 mph - N/A   Clear
11:55 AM 71.6 °F 57.2 °F 60% 29.99 in 10.0 mi SSW 9.2 mph 18.4 mph N/A   Clear
12:15 PM 73.4 °F 59.0 °F 61% 29.99 in 10.0 mi South 10.4 mph 17.3 mph N/A   Clear
12:35 PM 73.4 °F 59.0 °F 61% 29.97 in 10.0 mi SW 11.5 mph 21.9 mph N/A   Scattered Clouds
12:55 PM 73.4 °F 59.0 °F 61% 29.97 in 10.0 mi South 9.2 mph 20.7 mph N/A   Scattered Clouds
1:15 PM 75.2 °F 59.0 °F 57% 29.96 in 10.0 mi South 15.0 mph 23.0 mph N/A   Mostly Cloudy
1:35 PM 73.4 °F 57.2 °F 57% 29.94 in 10.0 mi South 12.7 mph 18.4 mph N/A   Mostly Cloudy
1:55 PM 73.4 °F 57.2 °F 57% 29.93 in 10.0 mi South 12.7 mph - N/A   Mostly Cloudy
2:15 PM 75.2 °F 57.2 °F 53% 29.93 in 10.0 mi South 12.7 mph 21.9 mph N/A   Scattered Clouds
2:35 PM 75.2 °F 55.4 °F 50% 29.92 in 10.0 mi North - - N/A   Mostly Cloudy
2:55 PM 77.0 °F 55.4 °F 47% 29.90 in 10.0 mi SW 15.0 mph 24.2 mph N/A   Mostly Cloudy
3:15 PM 77.0 °F 55.4 °F 47% 29.90 in 10.0 mi South 11.5 mph 21.9 mph N/A   Mostly Cloudy
3:35 PM 77.0 °F 55.4 °F 47% 29.88 in 10.0 mi South 16.1 mph 21.9 mph N/A   Mostly Cloudy
3:55 PM 75.2 °F 55.4 °F 50% 29.88 in 10.0 mi North - - N/A   Mostly Cloudy
4:15 PM 75.2 °F 53.6 °F 47% 29.87 in 10.0 mi SSW 11.5 mph 26.5 mph N/A   Mostly Cloudy
4:35 PM 75.2 °F 53.6 °F 47% 29.86 in 10.0 mi SSW 18.4 mph 25.3 mph N/A   Scattered Clouds
4:55 PM 77.0 °F 53.6 °F 44% 29.85 in 10.0 mi SSW 16.1 mph 25.3 mph N/A   Clear
5:15 PM 78.8 °F 55.4 °F 44% 29.84 in 10.0 mi North - - N/A   Scattered Clouds
5:35 PM 77.0 °F 55.4 °F 47% 29.84 in 10.0 mi South 10.4 mph 18.4 mph N/A   Scattered Clouds
5:55 PM 75.2 °F 55.4 °F 50% 29.84 in 10.0 mi South 10.4 mph 18.4 mph N/A   Scattered Clouds
6:15 PM 75.2 °F 55.4 °F 50% 29.84 in 10.0 mi South 13.8 mph 17.3 mph N/A   Clear
6:35 PM 73.4 °F 55.4 °F 53% 29.84 in 10.0 mi South 11.5 mph 17.3 mph N/A   Clear
6:55 PM 73.4 °F 55.4 °F 53% 29.84 in 10.0 mi South 8.1 mph - N/A   Mostly Cloudy
7:15 PM 73.4 °F 55.4 °F 53% 29.84 in 10.0 mi South 11.5 mph 17.3 mph N/A   Overcast
7:35 PM 73.4 °F 57.2 °F 57% 29.83 in 10.0 mi South 6.9 mph - N/A   Overcast
7:55 PM 71.6 °F 57.2 °F 60% 29.83 in 10.0 mi South 6.9 mph - N/A   Overcast
8:15 PM 71.6 °F 57.2 °F 60% 29.83 in 10.0 mi SSE 3.5 mph - N/A   Overcast
8:35 PM 71.6 °F 57.2 °F 60% 29.82 in 10.0 mi SE 4.6 mph - N/A   Overcast
8:55 PM 68.0 °F 60.8 °F 78% 29.83 in 7.0 mi SSE 5.8 mph 16.1 mph 0.05 in Rain Rain
9:15 PM 64.4 °F 62.6 °F 94% 29.82 in 10.0 mi Calm Calm - 0.01 in   Overcast
9:35 PM 62.6 °F 62.6 °F 100% 29.81 in 10.0 mi Calm Calm - 0.01 in   Overcast
9:55 PM 62.6 °F 62.6 °F 100% 29.80 in 7.0 mi NNE 3.5 mph - 0.01 in   Overcast
10:15 PM 62.6 °F 62.6 °F 100% 29.80 in 10.0 mi ESE 6.9 mph - N/A Thunderstorm Overcast
10:35 PM 66.2 °F 62.6 °F 88% 29.80 in 10.0 mi SE 4.6 mph - N/A Rain , Thunderstorm Rain
10:55 PM 64.4 °F 60.8 °F 88% 29.82 in 2.5 mi South 16.1 mph 33.4 mph 0.19 in Rain , Thunderstorm Thunderstorms and Rain
11:15 PM 62.6 °F 60.8 °F 94% 29.81 in 10.0 mi South 5.8 mph - N/A Rain , Thunderstorm Light Thunderstorms and Rain
11:35 PM 64.4 °F 62.6 °F 94% 29.80 in 10.0 mi South 5.8 mph - N/A   Overcast
11:55 PM 64.4 °F 62.6 °F 94% 29.80 in 10.0 mi South 10.4 mph 18.4 mph N/A   Overcast